Volver al catálogo

THOR ABLESTAR DEB

ActivoLEO
NORAD 323·DEBRIS·🇺🇸 United States

Lanzado Jun 29, 1961 desde Cape Canaveral Space Force Station

Loading…

Próximos Pases (próximas 24 horas)

TLE

ActualizadoSource: Space-Track

Época: Sep 14, 2026, 07:34 UTC

1 00323U 61015CZ  26257.31571095  .00000594  00000-0  33018-3 0  9990
2 00323  66.8373 232.7658 0073310  16.3965 343.9473 14.16521822341092

Sigue THOR ABLESTAR DEB en tiempo real con AllMySat

Download on the App Store